FW4110 Weather Reports


time (UTC)temp
C
wind
direction
speed
KPH
gust
KPH
rain 1hr
cm
rain 24hr
cm
rain mn
cm
humidity
%
barometer
mb
20260906144537 28 341 1.6 12.9 0.00 0.00 0.00 80 1017.4
20260906143032 27 50 4.8 11.3 0.00 0.00 0.00 80 1017.2
20260906141528 27 123 1.6 9.7 0.00 0.00 0.00 79 1017.3
20260906140029 27 21 3.2 9.7 0.00 0.00 0.00 79 1017.2
20260906134522 27 39 3.2 9.7 0.00 0.00 0.00 79 1017.2
20260906133020 26 141 0.0 9.7 0.00 0.00 0.00 79 1017.4
20260906131517 26 17 0.0 3.2 0.00 0.00 0.00 78 1017.5
20260906130017 26 62 0.0 8.0 0.00 0.00 0.00 79 1017.4
20260906124516 25 50 0.0 0.0 0.00 0.00 0.00 78 1017.3
20260906123024 25 6 0.0 6.4 0.00 0.00 0.00 79 1017.1
20260906121505 -17 0.0 0.0 0.00 0.00 0.00 1017.1
20260906120107 -17 0.0 0.0 0.00 0.00 0.00 1016.9
20260906114604 -17 0.0 0.0 0.00 0.00 0.00 1016.7
20260906113049 -17 0.0 0.0 0.00 0.00 0.00 1016.6
20260906111551 -17 0.0 0.0 0.00 0.00 0.00 1016.7
20260906110037 -17 0.0 0.0 0.00 0.00 0.00 1016.6
20260906104534 -17 0.0 0.0 0.00 0.00 0.00 1016.3
20260906103027 -17 0.0 0.0 0.00 0.00 0.00 1016.4
20260906101521 -17 133 0.0 0.0 0.00 0.00 0.00 1016.2
20260906100018 25 28 0.0 3.2 0.00 0.00 0.00 84 1016.0
20260906094515 26 54 0.0 0.0 0.00 0.00 0.00 85 1016.0
20260906093026 26 54 0.0 1.6 0.00 0.00 0.00 85 1015.8
20260906091510 26 115 0.0 1.6 0.00 0.00 0.00 85 1015.6
20260906090009 26 47 0.0 1.6 0.00 0.00 0.00 85 1015.4
20260906084506 26 51 0.0 4.8 0.00 0.00 0.00 85 1015.4
20260906083005 26 152 0.0 1.6 0.00 0.00 0.00 85 1015.2
20260906081502 26 42 0.0 1.6 0.00 0.00 0.00 86 1015.3
20260906074607 26 36 0.0 0.0 0.00 0.00 0.00 86 1015.0
20260906073103 26 36 0.0 0.0 0.00 0.00 0.00 87 1015.1
20260906071552 26 36 0.0 0.0 0.00 0.00 0.00 87 1015.2
20260906070149 26 36 0.0 0.0 0.00 0.00 0.00 87 1015.3
20260906064546 26 36 0.0 0.0 0.00 0.00 0.00 88 1015.4
20260906063043 26 36 0.0 0.0 0.00 0.00 0.00 88 1015.5
20260906061550 26 36 0.0 0.0 0.00 0.00 0.00 88 1015.6
20260906060037 26 36 0.0 0.0 0.00 0.00 0.00 88 1015.6
20260906054534 26 36 0.0 0.0 0.00 0.00 0.00 88 1015.7
20260906053037 26 36 0.0 0.0 0.00 0.00 0.00 88 1015.7
20260906051528 27 36 0.0 0.0 0.00 0.00 0.00 88 1015.5
20260906050027 27 36 0.0 0.0 0.00 0.00 0.00 88 1015.5
20260906044523 27 36 0.0 0.0 0.00 0.00 0.00 88 1015.6
20260906043038 27 36 0.0 0.0 0.00 0.00 0.00 87 1015.4
20260906041520 27 36 0.0 0.0 0.00 0.00 0.00 87 1015.4
20260906040019 27 36 0.0 0.0 0.00 0.00 0.00 87 1015.2
20260906034523 27 36 0.0 0.0 0.00 0.00 0.00 87 1015.1
20260906033016 28 36 0.0 0.0 0.00 0.00 0.00 86 1015.1
20260906031514 28 36 0.0 0.0 0.00 0.00 0.00 85 1014.7
20260906030010 28 36 0.0 0.0 0.00 0.00 0.00 86 1014.6
20260906024509 28 36 0.0 0.0 0.00 0.00 0.00 85 1014.5
20260906023007 29 36 0.0 0.0 0.00 0.00 0.00 83 1014.1
20260906021505 29 36 0.0 0.0 0.00 0.00 0.00 82 1014.0
20260906020003 30 36 0.0 1.6 0.00 0.00 0.00 82 1013.8
20260906014503 30 36 0.0 0.0 0.00 0.00 0.00 82 1013.8
20260906013101 30 36 0.0 0.0 0.00 0.00 0.00 81 1013.5
20260906011559 30 36 0.0 0.0 0.00 0.00 0.00 80 1013.2
20260906010057 31 36 0.0 0.0 0.00 0.00 0.00 79 1013.1
20260906004608 32 36 0.0 0.0 0.00 0.00 0.00 77 1012.9
20260906003055 33 36 0.0 0.0 0.00 0.00 0.00 73 1013.0
20260906001552 34 36 0.0 3.2 0.00 0.00 0.00 70 1012.9
20260905234554 36 116 0.0 6.4 0.00 0.00 0.00 64 1012.9
20260905233045 36 42 1.6 4.8 0.00 0.00 0.00 63 1013.0
20260905231543 36 3 0.0 11.3 0.00 0.00 0.00 63 1013.1
20260905230044 36 40 1.6 9.7 0.00 0.00 0.00 62 1013.0
20260905224546 37 26 3.2 9.7 0.00 0.00 0.00 61 1012.8
20260905223040 37 14 3.2 9.7 0.00 0.00 0.00 62 1012.9
20260905221542 37 342 4.8 11.3 0.00 0.00 0.00 59 1012.8
20260905220038 37 337 3.2 9.7 0.00 0.00 0.00 58 1012.9
20260905214538 37 12 4.8 12.9 0.00 0.00 0.00 59 1012.9
20260905213037 37 346 8.0 16.1 0.00 0.00 0.00 59 1012.8
20260905211535 38 60 6.4 14.5 0.00 0.00 0.00 60 1013.0
20260905210031 38 2 3.2 20.9 0.00 0.00 0.00 60 1013.2
20260905204526 38 342 1.6 9.7 0.00 0.00 0.00 56 1013.3
20260905203027 38 334 1.6 14.5 0.00 0.00 0.00 58 1013.4
20260905201522 37 6 8.0 17.7 0.00 0.00 0.00 60 1013.5
20260905200020 37 348 11.3 22.5 0.00 0.00 0.00 59 1013.7
20260905194517 38 45 9.7 14.5 0.00 0.00 0.00 58 1013.8
20260905193018 38 28 8.0 17.7 0.00 0.00 0.00 58 1014.1
20260905191513 37 7 6.4 19.3 0.00 0.00 0.00 57 1014.3
20260905190032 37 287 1.6 11.3 0.00 0.00 0.00 60 1014.3
20260905184508 37 294 3.2 9.7 0.00 0.00 0.00 62 1014.4
20260905183005 37 347 1.6 16.1 0.00 0.00 0.00 61 1014.5
20260905181604 37 7 4.8 14.5 0.00 0.00 0.00 63 1014.8
20260905180053 37 346 1.6 11.3 0.00 0.00 0.00 66 1014.8
20260905174548 36 11 4.8 12.9 0.00 0.00 0.00 67 1015.0
20260905173042 36 40 4.8 12.9 0.00 0.00 0.00 68 1015.0
20260905171537 36 16 9.7 17.7 0.00 0.00 0.00 68 1015.2
20260905170028 35 355 8.0 12.9 0.00 0.00 0.00 69 1015.6
20260905164530 34 350 9.7 12.9 0.00 0.00 0.00 71 1015.6
20260905163017 34 340 1.6 14.5 0.00 0.00 0.00 71 1015.8
20260905161509 34 344 4.8 9.7 0.00 0.00 0.00 74 1015.9
20260905160009 33 299 1.6 12.9 0.00 0.00 0.00 75 1015.8
20260905154600 32 325 1.6 14.5 0.00 0.00 0.00 75 1015.8
20260905153101 32 7 1.6 14.5 0.00 0.00 0.00 76 1016.0
20260905151549 31 325 0.0 14.5 0.00 0.00 0.00 77 1016.1
20260905150046 31 2 4.8 12.9 0.00 0.00 0.00 78 1016.1